sat.trackr.live / text

‹ back to catalog

IRIDE-MS1-EAGLET 2-8

NORAD 66702 · 2025-276AN

PAYLOAD ACTIVE UNKNOWN

§ Identity

Operator
Country
IT
Launch date
2025-11-28
Launch site
AFWTR
Launch vehicle
Mass (kg)
RCS (m²)

External: N2YO · Heavens-Above · Gunter

§ Orbital elements

Epoch: 2026-09-20T22:28:18.709824Z

Period
94.67 min
Inclination
97.4115°
Eccentricity
0.0005344
Mean motion
15.21042084 rev/d
Perigee alt
499.0 km
Apogee alt
506.4 km
Semi-major
6,880.8 km
B*
2.1854e-4
RAAN
335.9545°
Arg perigee
62.6798°
Mean anomaly
297.4982°
Rev number
4,497

§ Raw data

IRIDE-MS1-EAGLET 2-81 66702U 25276AN  26263.93632766  .00004784  00000+0  21854-3 0  99992 66702  97.4115 335.9545 0005344  62.6798 297.4982 15.21042084 44970

JSON: /api/v1/satellites/66702 · /tle

For live sub-satellite position, see the globe view (requires WebGL).

§ Visibility from observer

Set your observer location to see the next 7 days of passes ≥ 10°. The values pass through the URL so the page stays shareable.

No JS? Fill the form by hand. The geolocation button needs JavaScript.